Theta_e
311 312 314 315 315 315 315 316 316 315 311 310 310 310 313 314 314 314 315 316 319 318 319 324 327 330 331 343 342 342 351 354 352 352 351 347 344 344 342 340 343 342 340 340 339
312 311 313 315 316 316 315 315 316 316 313 310 310 310 312 314 314 314 314 316 318 318 318 325 330 327 335 347 344 344 349 351 348 347 348 348 345 344 340 342 342 341 339 339 339
314 312 312 314 316 316 316 315 316 317 314 310 309 310 313 314 316 323 315 316 318 319 318 323 326 324 342 349 348 344 347 346 348 347 346 348 346 343 340 344 342 340 340 340 338
314 314 313 312 314 316 316 316 317 317 315 309 309 310 313 317 322 326 320 315 318 321 317 319 324 332 348 350 346 350 345 345 347 343 346 348 347 343 342 343 340 339 340 339 339
314 314 314 313 313 315 316 316 317 318 316 310 309 312 314 320 325 325 323 316 319 320 317 327 330 337 345 347 346 347 346 345 345 343 347 348 346 346 343 340 337 338 340 340 339
314 314 314 314 312 315 316 317 317 316 315 311 311 313 318 325 326 323 320 320 317 320 317 329 327 335 347 348 347 346 345 344 344 345 346 345 345 347 344 341 339 339 340 340 340
313 313 314 314 313 315 317 318 318 314 314 314 314 314 319 324 325 324 318 318 322 319 319 325 325 333 347 346 345 345 347 346 346 345 346 342 348 348 343 342 341 341 341 340 340
315 313 313 314 313 315 318 320 322 317 316 317 322 320 319 322 323 323 320 314 316 315 322 322 325 345 346 345 344 347 347 350 347 346 345 346 350 345 342 342 342 342 342 342 341
316 315 313 314 314 316 319 321 323 324 322 321 321 321 325 323 325 322 321 319 318 319 321 319 337 344 344 346 348 347 352 350 350 345 346 346 349 347 343 342 342 342 342 342 342
315 316 313 314 314 317 320 321 323 325 325 323 324 324 324 324 320 321 320 320 320 319 317 319 338 344 345 344 346 349 347 348 349 347 346 347 347 345 346 342 342 343 342 343 343
319 316 314 314 314 318 321 322 322 322 322 323 323 323 325 321 320 320 320 321 319 317 320 316 337 344 344 343 342 343 343 341 345 347 347 349 347 344 346 346 345 343 343 343 343
320 317 315 314 315 318 321 323 322 322 322 323 323 324 324 322 321 321 321 320 318 319 318 320 325 329 337 342 342 342 342 338 346 348 348 348 349 346 343 345 346 345 345 340 343
319 320 315 314 315 318 320 323 322 321 322 323 324 325 324 323 323 321 321 319 318 319 319 323 325 319 320 324 332 332 333 336 337 350 348 350 351 350 345 343 344 345 345 344 343
321 320 317 314 313 316 321 323 323 322 327 326 326 325 325 324 324 322 321 320 319 319 318 320 319 319 319 321 323 325 325 334 346 349 350 348 348 346 349 348 345 344 346 344 343
321 320 319 313 313 317 322 323 323 322 328 325 324 324 324 323 323 321 321 320 321 322 322 324 322 320 321 322 322 327 333 340 345 346 349 351 351 346 346 349 349 345 344 346 344
322 321 320 314 314 319 323 323 323 328 329 328 323 323 323 323 322 320 321 321 320 322 322 324 322 322 324 323 323 339 343 344 345 348 347 342 347 338 345 348 346 345 344 344 345
322 321 320 314 314 320 323 323 326 331 327 328 325 323 324 324 324 322 323 323 323 324 325 324 324 323 322 329 334 336 339 336 341 344 337 339 348 341 342 345 345 347 344 344 344
321 322 318 314 314 319 323 324 329 329 330 328 323 322 325 324 324 322 323 324 321 322 324 326 324 324 322 325 328 335 333 327 331 334 331 343 346 341 343 342 342 346 347 345 344
321 321 320 316 314 319 323 323 326 327 329 326 323 324 324 323 324 323 324 324 324 323 326 326 325 321 322 321 324 326 330 326 328 327 329 333 340 341 342 343 344 344 344 345 345
321 318 322 318 314 320 324 321 321 323 324 323 325 325 327 325 325 324 324 324 324 321 322 325 327 325 326 323 324 323 321 325 327 329 329 335 343 342 346 344 342 340 340 342 344
322 317 319 316 315 320 323 323 322 322 322 323 325 325 326 328 325 325 326 326 324 321 321 321 323 328 331 332 331 327 330 329 329 331 328 330 335 341 343 338 338 336 337 338 340
321 320 317 314 318 315 321 321 321 324 323 323 323 325 324 327 328 327 329 328 323 322 324 323 329 332 332 330 328 330 333 333 331 336 335 336 335 336 339 338 337 337 340 345 346
318 314 319 315 317 320 319 320 322 322 323 323 324 323 322 326 329 329 328 325 323 326 327 325 329 333 333 331 329 331 331 331 332 334 341 339 334 334 339 340 339 346 344 345 346
316 318 322 318 320 321 324 323 324 324 325 324 325 321 321 323 323 328 328 325 324 327 321 324 325 330 329 329 331 332 331 330 331 333 334 335 335 335 337 343 343 343 344 344 346
317 317 319 324 323 322 323 324 324 323 324 324 324 328 326 324 323 326 326 325 326 325 324 329 331 328 327 327 330 331 331 331 332 332 332 329 333 332 334 338 343 342 343 343 346
318 318 316 316 317 322 320 324 324 323 324 327 326 327 327 323 326 327 327 327 327 326 327 326 332 332 333 332 332 333 332 332 332 332 331 332 333 332 331 337 341 342 341 344 345
314 314 316 315 318 319 320 323 323 320 322 322 324 323 326 327 323 323 322 322 326 328 328 331 332 333 328 332 333 333 331 331 331 332 332 333 332 333 335 339 341 341 340 342 343
Wind_Speed
10 9 9 9 9 10 11 11 10 8 5 3 2 4 5 6 5 6 5 7 11 9 9 9 7 4 3 4 5 2 2 4 4 3 4 6 2 3 4 11 2 2 4 12 13
10 9 8 8 8 9 10 11 11 9 6 3 2 2 3 4 4 5 5 11 11 9 10 10 8 4 3 2 3 2 2 2 3 6 4 6 2 5 5 4 3 7 11 15 11
11 9 8 7 8 9 10 11 11 9 6 3 1 2 3 3 5 2 9 13 12 10 8 10 6 3 2 2 4 2 3 6 5 7 5 3 4 2 10 1 2 11 16 15 11
12 11 9 8 8 9 10 11 10 8 5 3 1 2 4 7 5 5 5 12 13 9 10 10 6 3 2 2 3 2 5 3 10 6 5 3 3 3 5 2 5 12 14 15 12
13 11 10 9 8 8 10 10 9 7 4 3 1 3 6 4 4 5 3 11 13 9 10 9 5 4 3 5 5 5 5 5 12 8 2 3 3 4 5 6 10 13 12 12 10
15 13 11 9 8 7 8 10 10 6 4 3 3 4 5 3 5 3 2 10 13 10 11 7 2 6 9 4 5 5 8 13 8 5 5 4 2 2 7 9 13 12 11 9 9
18 15 12 9 7 6 7 9 10 7 5 5 4 3 4 3 4 2 2 9 10 10 10 6 4 2 6 9 10 13 11 7 4 4 2 7 7 4 11 11 12 12 10 9 9
21 17 13 10 7 6 6 8 7 5 5 5 5 3 2 3 2 1 2 8 11 11 9 4 4 10 5 14 4 4 3 4 3 8 4 3 2 7 10 13 12 13 11 10 10
23 20 14 9 6 5 6 10 6 2 3 5 3 2 2 2 4 5 5 5 9 10 6 3 6 6 8 6 3 3 2 1 4 9 4 4 1 8 13 13 12 14 13 11 11
24 22 15 9 5 4 7 8 5 2 2 3 3 3 2 1 6 8 6 6 4 8 6 4 4 3 3 4 2 3 2 2 3 8 6 6 7 6 12 17 12 14 16 15 14
24 23 16 9 3 3 6 5 5 2 5 2 2 2 3 6 8 7 6 4 4 4 3 2 4 6 10 5 5 5 2 1 2 5 8 10 9 10 14 13 17 17 16 18 18
24 23 16 10 3 2 3 3 5 5 6 3 5 6 5 8 5 5 6 3 2 4 2 3 4 3 4 7 5 6 7 3 1 5 9 5 14 15 12 16 20 22 20 23 17
24 22 16 9 4 4 1 2 9 10 2 3 2 2 6 13 5 10 9 4 3 4 3 4 1 2 4 5 8 10 9 5 1 6 5 2 6 9 7 13 12 16 22 23 24
25 22 18 8 2 6 3 4 10 4 1 2 2 3 8 8 4 7 12 5 2 6 4 3 1 3 3 7 9 12 5 7 11 7 0 3 4 2 7 8 14 19 20 24 28
26 22 18 7 4 7 5 5 6 2 2 3 3 3 8 4 7 6 14 6 5 6 5 3 7 6 7 10 9 3 3 9 11 4 2 4 3 1 2 9 15 19 24 24 27
26 23 17 7 7 9 5 4 2 2 2 3 5 5 5 1 3 5 5 3 1 4 3 5 1 4 4 3 8 13 12 8 4 1 3 1 4 4 3 2 1 9 23 25 25
26 22 16 5 6 12 5 2 2 3 2 4 3 4 4 4 5 5 8 9 4 4 6 2 4 2 4 6 7 5 5 2 4 4 4 1 4 7 3 5 4 5 7 22 24
27 21 11 6 10 14 7 2 4 1 4 1 0 4 5 8 4 6 6 6 4 4 2 4 7 3 3 6 6 9 6 4 7 7 6 3 5 2 1 3 6 5 7 6 18
26 18 3 6 12 15 7 3 3 4 1 1 0 4 4 5 3 6 8 5 7 14 6 4 2 1 3 1 2 6 5 2 3 1 4 2 4 9 7 8 5 4 5 7 15
26 13 4 5 15 14 4 4 3 3 2 1 4 5 5 5 8 8 8 4 4 11 4 3 3 2 2 1 9 3 8 3 2 5 8 5 4 4 6 8 6 6 7 4 5
17 4 7 8 16 5 4 5 4 6 5 3 3 3 3 4 7 5 6 2 5 6 4 5 2 3 4 4 1 4 3 4 3 2 6 7 4 3 5 2 4 4 4 7 8
9 2 4 11 2 1 3 4 2 3 4 4 3 4 4 6 6 6 9 4 8 13 8 1 2 1 2 3 1 1 1 2 5 4 2 4 4 1 2 3 3 5 5 5 10
15 4 4 3 2 2 2 3 4 2 2 2 3 5 3 5 4 5 5 1 10 8 8 8 1 3 2 4 3 2 3 2 2 1 6 4 3 1 2 4 4 5 5 6 7
6 3 3 2 5 2 3 1 3 4 5 5 4 1 3 4 2 6 7 2 5 3 9 7 3 4 5 0 2 4 4 3 3 4 2 8 9 4 4 6 5 5 6 6 4
5 2 2 3 2 3 2 2 5 5 2 3 2 5 4 3 3 3 3 4 3 11 4 3 5 5 3 1 3 2 4 6 7 5 7 10 8 12 6 7 7 7 7 6 3
4 3 3 3 4 3 1 2 2 3 2 3 0 7 7 4 6 8 8 5 6 5 3 1 4 4 4 2 1 5 6 7 9 9 11 15 17 8 10 8 8 7 5 6 3
4 4 2 2 2 2 1 1 2 7 5 9 5 8 8 6 15 15 5 2 5 9 6 5 6 5 6 2 2 8 13 13 9 9 8 10 11 2 6 9 7 5 5 3 4
Wind_Direction
29 27 28 27 25 24 21 17 13 9 359 333 280 238 226 234 230 228 209 174 168 147 151 165 154 148 41 60 65 89 97 145 147 75 82 25 115 107 78 129 114 28 126 146 154
23 19 17 17 15 16 15 11 5 360 355 345 309 235 212 223 227 225 187 179 171 158 159 169 162 154 53 58 47 49 66 72 23 103 8 6 148 150 124 137 80 108 124 145 146
17 12 9 3 1 4 4 1 360 358 360 358 353 185 183 175 144 111 176 177 167 162 159 161 171 145 93 66 27 56 70 131 119 80 13 345 134 196 132 275 168 157 147 149 148
14 8 3 358 352 353 354 356 357 356 1 10 44 156 155 144 149 124 143 181 177 176 164 163 178 157 113 84 71 54 74 113 133 58 19 33 359 128 129 43 139 149 155 152 151
13 9 3 356 348 347 350 354 355 355 1 20 88 135 144 140 116 127 132 187 181 181 166 163 160 172 101 106 95 78 118 81 126 126 350 321 99 41 151 99 147 152 157 161 153
12 6 2 356 349 349 355 359 2 6 17 41 87 135 143 134 136 130 145 180 190 184 172 145 128 117 109 73 55 112 120 111 128 119 24 53 272 299 160 142 147 158 164 174 167
12 4 358 354 347 349 2 8 14 31 56 65 75 140 158 130 139 154 124 169 180 178 169 124 121 159 115 106 116 118 111 117 117 110 120 139 263 167 152 160 159 167 180 187 191
10 3 356 352 347 345 355 359 2 29 54 50 41 107 124 184 181 176 144 157 172 156 138 118 115 106 82 123 94 108 124 161 132 174 156 175 184 143 162 163 177 178 191 201 205
6 1 354 351 346 331 349 350 352 327 344 356 23 36 124 276 235 171 146 134 147 148 143 140 134 93 125 136 108 30 96 129 158 195 150 210 59 159 178 192 187 189 204 205 215
5 0 353 347 346 318 348 344 346 331 307 335 50 128 82 35 142 158 153 135 105 145 127 138 105 114 144 206 93 135 139 208 242 193 210 204 246 174 190 196 204 205 206 215 217
3 2 352 342 335 306 359 347 352 348 318 238 268 275 90 129 133 155 161 163 119 125 157 47 201 195 203 183 102 120 141 272 249 178 199 228 251 230 202 214 210 209 215 222 226
358 1 353 341 300 237 33 52 31 339 309 290 249 240 199 168 153 167 153 146 100 135 135 160 234 238 133 189 234 265 286 283 81 170 208 242 251 247 224 224 219 208 212 219 223
352 354 354 336 277 206 186 23 345 332 271 292 251 213 170 180 186 189 172 136 122 141 185 210 54 97 198 218 234 248 252 198 280 156 208 285 265 238 225 225 231 213 223 226 224
348 347 350 333 251 193 204 326 337 326 355 159 226 183 164 168 172 189 182 166 148 194 167 249 188 225 237 242 222 273 270 190 148 166 135 230 319 273 223 241 223 223 211 220 225
344 340 343 309 235 187 202 313 338 333 132 138 149 167 168 185 141 165 182 184 173 166 189 189 179 186 222 238 188 297 154 157 158 146 184 176 254 186 213 238 239 223 219 215 220
342 335 334 310 225 185 189 306 326 251 157 161 142 169 155 147 114 127 170 190 131 183 237 263 214 213 231 87 170 133 108 100 91 117 239 112 252 277 199 234 226 232 227 218 218
338 333 325 275 200 183 185 222 255 216 13 176 184 175 187 160 175 172 178 192 210 202 225 216 214 229 198 120 139 186 184 211 224 213 278 93 199 263 238 223 252 266 239 222 218
336 333 314 224 193 177 168 135 239 209 215 349 171 144 205 169 189 169 169 206 199 180 269 226 187 186 157 228 204 201 239 239 260 238 261 141 226 237 173 221 262 256 240 219 220
336 338 309 198 185 183 176 189 248 207 182 294 39 196 192 194 184 178 205 216 206 191 215 179 135 56 2 126 215 158 205 27 161 92 249 188 263 263 233 239 215 241 231 264 248
339 339 354 203 176 171 169 234 253 234 297 168 215 212 203 182 183 193 183 183 213 189 210 178 190 75 121 149 63 233 130 174 182 233 247 210 260 251 220 218 209 238 251 284 294
341 353 358 148 163 174 204 225 264 257 245 234 214 205 223 188 200 190 186 194 191 146 154 161 255 125 191 38 37 151 183 68 115 271 266 256 241 230 240 195 233 251 251 296 285
1 328 5 154 151 37 203 212 258 267 232 264 260 232 218 174 176 203 202 242 158 148 171 120 108 86 84 119 62 293 28 230 247 194 234 302 252 40 264 279 260 273 287 303 297
341 311 36 192 212 216 284 268 264 271 269 278 257 221 184 194 192 201 203 201 163 164 159 173 93 153 181 175 164 232 118 113 115 175 202 226 240 47 300 262 254 273 302 325 315
352 340 15 108 69 22 5 297 281 299 266 267 275 309 226 191 230 186 173 130 169 119 123 131 137 210 258 133 107 185 186 177 245 253 229 251 281 263 266 276 268 282 299 316 307
353 53 39 357 66 360 295 318 294 304 296 283 155 40 299 179 168 226 167 146 113 150 108 200 165 191 197 170 197 221 202 198 228 243 248 289 251 279 284 263 269 285 290 306 301
355 359 352 295 303 286 192 190 258 325 287 304 310 354 329 242 191 215 187 206 175 183 138 119 149 171 189 170 197 261 255 248 249 250 252 262 272 296 263 249 262 283 292 320 317
341 330 332 313 316 281 244 326 129 0 267 272 318 342 311 321 295 272 230 140 201 169 154 158 148 181 237 179 234 259 250 233 234 231 241 253 281 215 229 241 252 266 269 291 337